Tracking 29892 objects as of 21-Nov-2024
HD Live streaming from Space Station
objects crossing your sky now

DELTA 1 DEB

Track DELTA 1 DEB now!
10-day predictions


NORAD ID: 40756
Int'l Code: 1976-077FZ
Perigee: 1,512.7 km
Apogee: 1,635.1 km
Inclination: 102.5 °
Period: 117.5 minutes
Semi major axis: 7944 km
RCS: Unknown
Launch date: July 29, 1976
Source: United States (US)
Launch site: AIR FORCE WESTERN TEST RANGE (AFWTR)

Note: This is SATELLITE DEBRIS
Your satellite tracking list
Your tracking list is empty




NASA's NSSDC Master Catalog

Two Line Element Set (TLE):
1 40756U 76077FZ  24320.17528847 -.00000021  00000-0  22102-3 0  9996
2 40756 102.5000 293.0294 0077019 319.0347  52.4284 12.25950266885589
Source of the keplerian elements: AFSPC